Home   Weather   Torrevieja   Past weeks

Flag for Spain Past Weather in Torrevieja, Spain — Yesterday and Last 2 Weeks

Now
79 °F

Passing clouds.


Feels Like: 81 °F
Forecast: 75 / 82 °F
Wind: 7 mph from East

Location: Murcia / San Javier

Current Time: Aug 31, 2016 at 12:53:43 AM

Latest Report: Aug 30, 2016 at 11:00 PM


Visibility: N/A

Pressure: 30.07 "Hg

Humidity: 74%

Dew Point: 70 °F

Location of TorreviejaLocation

Past Weather in Torrevieja — Graph

°F

Torrevieja Temperature Yesterday

Maximum temperature yesterday: 82 °F (at 11:00 AM)
Minimum temperature yesterday: 77 °F (at 8:00 AM)
Average temperature yesterday: 80 °F

High & Low Weather Summary for the Past Weeks

 TemperatureHumidityPressure
High93 °F (Aug 17, 4:00 PM)94% (Aug 19, 7:00 AM)30.24 "Hg (Aug 19, 7:00 AM)
Low68 °F (Aug 23, 7:00 AM)36% (Aug 17, 12:00 PM)29.80 "Hg (Aug 18, 7:00 PM)
Average80 °F71%30.03 "Hg
* Reported Aug 15 11:00 PM — Aug 30 11:00 PM, Torrevieja, Weather by CustomWeather, © 2016

Note: Actual official high and low records may vary slightly from our data, if they occured in-between our weather recording intervals... More about our weather records

Advertising

Torrevieja Weather History for the Previous 24 Hours

Scroll right to see more
 ConditionsComfort  
Time TempWeatherWind HumidityBarometerVisibility
11:00 PM
Tue, Aug 30
79 °FPassing clouds.7 mph74%30.07 "HgN/A
10:00 PM79 °FPassing clouds.8 mph79%30.04 "HgN/A
9:00 PM79 °FScattered clouds.8 mph79%30.04 "HgN/A
8:00 PM79 °FScattered clouds.8 mph74%30.01 "HgN/A
7:00 PM81 °FPassing clouds.8 mph74%30.01 "HgN/A
6:00 PM81 °FPassing clouds.8 mph70%30.01 "HgN/A
5:00 PM82 °FPassing clouds.8 mph70%30.04 "HgN/A
4:00 PM82 °FScattered clouds.8 mph66%30.04 "HgN/A
3:00 PM82 °FScattered clouds.9 mph66%30.07 "HgN/A
2:00 PM82 °FScattered clouds.9 mph66%30.07 "HgN/A
1:00 PM82 °FPassing clouds.10 mph66%30.07 "HgN/A
12:00 PM82 °FPassing clouds.10 mph66%30.09 "HgN/A
11:00 AM82 °FPassing clouds.10 mph66%30.07 "HgN/A
10:00 AM81 °FScattered clouds.10 mph74%30.07 "HgN/A
9:00 AM79 °FBroken clouds.12 mph79%30.07 "HgN/A
8:00 AM77 °FPassing clouds.8 mph83%30.04 "HgN/A
7:00 AM79 °FPassing clouds.6 mph79%30.04 "Hg4 mi
Weather by CustomWeather, © 2016

See weather overviewHow to use our weather pages